Weather History for KDLN - September, 2013

Change the Weather History Date:

Wednesday, September 18, 2013

  Actual Average Record
Temperature  
Mean Temperature 51 °F 54 °F  
Max Temperature 60 °F 69 °F 89 °F (1981)
Min Temperature 41 °F 39 °F 17 °F (1965)
Degree Days  
Heating Degree Days 14    
Month to date heating degree days 50  
Since 1 July heating degree days 56  
Cooling Degree Days 0    
Month to date cooling degree days 19  
Year to date cooling degree days 247  
Moisture  
Dew Point 39 °F    
Average Humidity 67    
Maximum Humidity 96    
Minimum Humidity 37    
Precipitation  
Precipitation 0.30 in 0.03 in 1.15 in (1976)
Month to date precipitation 1.39 0.54  
Year to date precipitation 8.39 8.84  
Snow  
Snow 0.00 in - - ()
Snow Depth 0.00 in    
Sea Level Pressure  
Sea Level Pressure 29.83 in    
Wind  
Wind Speed 9 mph (SW)    
Max Wind Speed 21 mph    
Max Gust Speed 28 mph    
Visibility 9 miles    
Events Rain    
T = Trace of Precipitation, MM = Missing Value Source: NWS Daily Summary

Daily Weather History Graph

Daily Weather History Graph

Search for Another Location

Airport or City:

Trip Planner

Search our weather history database for the weather conditions in past years. The results will help you decide how hot, cold, wet, or windy it might be!

Date:

Astronomy

Sep. 18, 2013 Rise Set
Actual Time 7:12 AM MDT 7:34 PM MDT
Civil Twilight 6:43 AM MDT 8:04 PM MDT
Nautical Twilight 6:08 AM MDT 8:39 PM MDT
Astronomical Twilight 5:32 AM MDT 9:14 PM MDT
Moon 6:59 PM MDT (9/18) 6:18 AM MDT (9/18)
Length of Visible Light 13h 21m
Length of Day
12h 22m
Waxing Gibbous, 99% of the Moon is Illuminated
Sep 18
Waxing Gibbous
Sep 19
Full
Sep 26
Last Quarter
Oct 4
New
Oct 11
First Quarter

Hourly Weather History & Observations

Time (MDT) Temp. Windchill Dew Point Humidity Pressure Visibility Wind Dir Wind Speed Gust Speed Precip Events Conditions
12:53 AM 46.9 °F - 45.0 °F 93% 29.65 in 10.0 mi South 6.9 mph - N/A   Scattered Clouds
1:53 AM 46.9 °F - 45.0 °F 93% 29.68 in 10.0 mi SW 6.9 mph - N/A   Scattered Clouds
2:53 AM 46.0 °F 41.9 °F 44.1 °F 93% 29.68 in 10.0 mi SSE 8.1 mph - N/A   Clear
3:53 AM 46.0 °F 42.5 °F 44.1 °F 93% 29.65 in 10.0 mi SSW 6.9 mph - N/A   Partly Cloudy
4:53 AM 42.1 °F 40.2 °F 41.0 °F 96% 29.69 in 10.0 mi West 3.5 mph - 0.01 in   Mostly Cloudy
5:46 AM 44.6 °F - 42.8 °F 93% 29.76 in 10.0 mi Calm Calm - N/A   Mostly Cloudy
5:53 AM 44.1 °F 42.5 °F 43.0 °F 96% 29.70 in 3.0 mi Variable 3.5 mph - 0.07 in Rain Heavy Rain
5:57 AM 44.6 °F 43.1 °F 42.8 °F 93% 29.77 in 1.5 mi West 3.5 mph - 0.08 in Rain Heavy Rain
6:00 AM 42.8 °F - 42.8 °F 100% 29.77 in 1.0 mi Calm Calm - 0.16 in Rain Heavy Rain
6:03 AM 42.8 °F 41.1 °F 42.8 °F 100% 29.77 in 1.2 mi SSE 3.5 mph - 0.20 in Rain Heavy Rain
6:10 AM 42.8 °F - 41.0 °F 93% 29.76 in 4.0 mi Calm Calm - 0.21 in Rain Light Rain
6:40 AM 44.6 °F 41.4 °F 42.8 °F 93% 29.79 in 10.0 mi South 5.8 mph - 0.21 in   Overcast
6:48 AM 44.6 °F 40.7 °F 42.8 °F 93% 29.79 in 10.0 mi South 6.9 mph - 0.21 in   Overcast
6:53 AM 44.1 °F 40.1 °F 42.1 °F 93% 29.73 in 10.0 mi South 6.9 mph - 0.21 in   Overcast
7:53 AM 44.1 °F 38.1 °F 39.0 °F 82% 29.77 in 10.0 mi SSW 11.5 mph - N/A   Overcast
8:53 AM 46.0 °F 39.9 °F 39.0 °F 76% 29.80 in 10.0 mi SSW 13.8 mph - N/A   Overcast
9:53 AM 46.9 °F - 39.9 °F 77% 29.83 in 10.0 mi SW 13.8 mph - N/A   Overcast
10:53 AM 50.0 °F - 39.9 °F 68% 29.84 in 10.0 mi WSW 10.4 mph - 0.00 in   Overcast
11:53 AM 53.1 °F - 37.0 °F 55% 29.85 in 10.0 mi NNW 6.9 mph - N/A   Mostly Cloudy
12:53 PM 53.1 °F - 36.0 °F 52% 29.86 in - Calm Calm - N/A   Overcast
1:53 PM 54.0 °F - 35.1 °F 49% 29.86 in 10.0 mi Calm Calm - N/A   Partly Cloudy
2:53 PM 59.0 °F - 34.0 °F 39% 29.85 in 10.0 mi WSW 16.1 mph 24.2 mph 0.01 in   Mostly Cloudy
3:53 PM 55.9 °F - 35.1 °F 45% 29.86 in 10.0 mi WSW 15.0 mph 20.7 mph N/A   Scattered Clouds
4:53 PM 57.0 °F - 33.1 °F 40% 29.88 in 10.0 mi WSW 15.0 mph 18.4 mph N/A   Overcast
5:53 PM 54.0 °F - 33.1 °F 45% 29.90 in 10.0 mi WNW 18.4 mph 23.0 mph N/A   Mostly Cloudy
6:09 PM 53.6 °F - 33.8 °F 47% 29.98 in 10.0 mi West 4.6 mph 20.7 mph N/A   Overcast
6:53 PM 52.0 °F - 36.0 °F 54% 29.94 in 10.0 mi NNW 6.9 mph - 0.00 in Rain Light Rain
7:53 PM 50.0 °F - 37.9 °F 63% 29.98 in 10.0 mi South 4.6 mph - 0.00 in   Overcast
8:53 PM 46.0 °F 40.6 °F 37.0 °F 71% 30.03 in 10.0 mi SSW 11.5 mph - N/A   Scattered Clouds
9:53 PM 45.0 °F 39.3 °F 37.0 °F 74% 30.05 in 10.0 mi SSW 11.5 mph - N/A   Overcast
10:53 PM 44.1 °F 39.0 °F 37.0 °F 76% 30.06 in 10.0 mi SSW 9.2 mph - N/A   Overcast
11:53 PM 43.0 °F 38.2 °F 35.1 °F 74% 30.06 in 10.0 mi South 8.1 mph - N/A   Clear